Location: Central Falls
(41.8900°N, 71.3929°W)
Time: 11:48:35
(UTC+00:00)

Vanguard 2 - Pass Details

Date: 11 December 2023
Orbit: 554 x 2918 km, 32.9° (Epoch: 01 March)

Event Time Altitude Azimuth Distance (km) Brightness Sun altitude
Rises 23:01:47 0° 226° (SW) 6,050 13.1 -19.2°
Reaches altitude 10° 23:05:43 10° 220° (SW) 5,276 12.5 -19.9°
Maximum altitude 23:20:58 46° 154° (SSE) 3,589 10.7 -22.7°
Enters shadow 23:30:10 28° 104° (ESE) 4,334 10.8 -24.4°
